TimeCDT,TemperatureF,Dew PointF,Humidity,Sea Level PressureIn,VisibilityMPH,Wind Direction,Wind SpeedMPH,Gust SpeedMPH,PrecipitationIn,Events,Conditions,WindDirDegrees,DateUTC
12:10 AM,73.0,61.0,66,29.58,10.0,South,13.8,-,0.00,,Overcast,180,2013-04-30 05:10:00
12:54 AM,73.9,60.1,62,29.55,10.0,SSW,17.3,27.6,0.00,,Overcast,200,2013-04-30 05:54:00
1:15 AM,73.9,60.1,62,29.57,10.0,SSW,16.1,25.3,N/A,Thunderstorm,Thunderstorm,200,2013-04-30 06:15:00
1:54 AM,73.0,59.0,61,29.56,10.0,South,15.0,-,N/A,Thunderstorm,Thunderstorm,190,2013-04-30 06:54:00
2:07 AM,73.0,59.0,61,29.57,10.0,South,11.5,21.9,N/A,,Mostly Cloudy,190,2013-04-30 07:07:00
2:54 AM,73.0,57.0,57,29.55,10.0,SSW,18.4,24.2,N/A,,Scattered Clouds,200,2013-04-30 07:54:00
3:54 AM,73.0,55.0,53,29.55,10.0,SSW,20.7,28.8,N/A,,Mostly Cloudy,200,2013-04-30 08:54:00
4:54 AM,72.0,53.1,51,29.55,10.0,SSW,19.6,-,N/A,,Mostly Cloudy,200,2013-04-30 09:54:00
5:54 AM,71.1,51.1,49,29.57,10.0,SSW,19.6,29.9,N/A,,Mostly Cloudy,200,2013-04-30 10:54:00
6:54 AM,71.1,48.9,45,29.59,10.0,SSW,23.0,32.2,N/A,,Mostly Cloudy,200,2013-04-30 11:54:00
7:54 AM,73.0,48.0,41,29.62,10.0,SSW,20.7,34.5,N/A,,Scattered Clouds,210,2013-04-30 12:54:00
8:54 AM,75.0,48.0,38,29.65,10.0,SSW,24.2,40.3,N/A,,Mostly Cloudy,210,2013-04-30 13:54:00
9:54 AM,75.0,48.0,38,29.65,10.0,SW,27.6,36.8,N/A,,Mostly Cloudy,220,2013-04-30 14:54:00
10:54 AM,80.1,53.1,39,29.65,10.0,SW,24.2,33.4,N/A,,Mostly Cloudy,230,2013-04-30 15:54:00
11:54 AM,82.0,54.0,38,29.66,10.0,SW,28.8,34.5,N/A,,Scattered Clouds,220,2013-04-30 16:54:00
12:54 PM,82.0,55.9,41,29.65,10.0,WSW,21.9,27.6,N/A,,Scattered Clouds,240,2013-04-30 17:54:00
1:54 PM,84.0,55.9,38,29.65,10.0,WSW,16.1,25.3,N/A,,Mostly Cloudy,250,2013-04-30 18:54:00
2:54 PM,84.0,57.0,40,29.66,10.0,WSW,19.6,24.2,N/A,,Overcast,240,2013-04-30 19:54:00
3:51 PM,80.6,53.6,39,29.68,10.0,North,21.9,-,N/A,,Overcast,350,2013-04-30 20:51:00
3:54 PM,80.1,53.1,39,29.66,10.0,North,13.8,20.7,N/A,,Overcast,360,2013-04-30 20:54:00
4:54 PM,81.0,53.1,38,29.67,10.0,North,9.2,-,N/A,,Mostly Cloudy,350,2013-04-30 21:54:00
5:54 PM,81.0,54.0,39,29.69,10.0,NNE,6.9,-,N/A,,Mostly Cloudy,30,2013-04-30 22:54:00
6:54 PM,80.1,53.1,39,29.71,10.0,NNE,5.8,-,N/A,,Overcast,30,2013-04-30 23:54:00
7:54 PM,79.0,52.0,39,29.73,10.0,East,6.9,-,N/A,,Mostly Cloudy,90,2013-05-01 00:54:00
8:54 PM,75.0,50.0,41,29.75,10.0,North,9.2,-,N/A,,Overcast,360,2013-05-01 01:54:00
9:54 PM,71.1,46.0,41,29.81,10.0,NNE,13.8,23.0,N/A,,Mostly Cloudy,30,2013-05-01 02:54:00
10:54 PM,66.0,46.0,48,29.84,10.0,NNE,16.1,-,N/A,,Scattered Clouds,30,2013-05-01 03:54:00
11:54 PM,62.1,45.0,53,29.84,10.0,NNE,13.8,26.5,N/A,,Partly Cloudy,30,2013-05-01 04:54:00